Theta_e
324 326 327 326 329 330 331 332 334 337 336 337 340 342 343 342 347 347 350 349 349 347 345 345 346 346 346 347 348 349 349 345 344 343 345 343 342 341 342 345 345 343 345 346
324 326 326 326 325 327 328 330 332 335 334 334 337 338 339 339 344 346 348 349 349 348 347 346 346 346 346 348 349 351 350 346 338 347 344 343 342 342 343 347 351 345 347 346
326 325 325 325 326 327 327 329 331 333 334 332 334 336 337 336 339 342 345 348 349 349 347 346 345 346 345 347 350 352 350 347 341 348 348 347 344 344 346 349 352 351 347 347
326 325 325 325 326 326 327 327 328 330 332 336 334 340 340 339 341 344 344 347 349 348 348 347 345 345 346 348 351 352 353 350 348 342 347 345 344 344 347 349 350 350 348 348
325 325 324 325 325 325 325 326 326 327 329 331 334 336 337 339 340 344 346 345 348 348 349 348 347 345 345 347 350 352 351 344 346 340 343 347 345 344 349 350 350 350 351 347
324 323 325 325 325 325 325 325 326 327 328 331 333 335 337 338 340 340 344 344 347 348 348 349 348 345 346 347 350 352 354 345 345 344 341 341 344 344 349 352 352 352 352 351
324 325 324 324 326 326 325 326 327 327 328 330 332 333 335 335 336 339 341 343 345 348 348 349 349 349 346 347 349 352 353 346 346 346 345 343 341 342 347 352 353 351 350 350
326 326 325 325 326 327 325 326 327 328 327 328 330 331 333 334 334 335 336 338 344 347 348 348 349 350 350 349 348 351 352 349 346 347 347 346 345 344 350 352 353 353 350 349
328 328 326 326 325 327 327 329 326 327 328 328 329 329 330 332 334 334 334 335 338 344 347 348 348 349 351 352 351 351 348 339 341 344 346 346 347 347 351 351 351 353 352 350
329 330 327 325 326 326 328 327 326 327 328 329 327 329 330 332 332 334 334 336 337 341 345 347 347 348 349 351 353 353 348 340 337 339 342 344 344 345 346 346 347 349 352 351
327 329 329 326 326 327 326 327 327 327 327 328 329 329 330 331 333 333 334 335 338 341 344 346 347 347 348 349 350 354 354 347 343 340 337 339 341 341 343 345 346 346 346 347
326 328 331 328 326 327 327 327 328 328 330 328 329 329 328 329 330 333 333 334 336 338 340 343 343 346 347 349 350 350 353 355 350 343 341 337 338 339 340 342 343 345 345 346
325 327 331 331 328 327 327 327 327 327 328 331 329 328 329 330 330 332 333 333 334 336 338 339 340 342 345 348 349 349 351 351 354 354 347 342 339 339 339 339 340 342 344 345
319 327 330 332 331 329 328 327 327 327 330 329 331 330 329 329 330 331 330 330 330 333 335 336 338 341 342 345 347 349 348 350 352 353 354 349 342 341 340 339 339 341 343 344
319 327 326 329 325 325 329 328 328 328 329 330 330 330 331 330 330 330 330 330 331 333 335 337 340 340 340 343 346 348 349 348 349 351 353 351 342 342 342 341 341 341 342 343
317 324 323 326 324 323 324 326 327 328 329 329 330 331 330 330 329 329 329 328 329 328 331 333 337 341 342 345 347 349 349 347 348 349 348 346 346 344 342 342 342 342 342 343
315 319 321 326 324 324 325 326 326 327 328 329 330 330 330 330 330 329 329 329 329 329 330 330 335 339 340 340 337 339 339 349 348 346 344 343 344 345 343 345 346 344 345 345
315 316 318 323 324 326 326 327 326 326 327 327 328 329 329 329 328 328 328 329 329 328 330 331 331 332 339 339 338 345 347 346 345 342 341 343 343 343 345 345 343 343 344 345
313 315 317 320 322 324 325 323 324 326 328 327 328 328 328 326 326 327 327 327 328 329 330 331 330 331 331 333 337 343 347 348 348 342 341 341 342 343 345 343 343 355 356 357
312 313 315 318 320 323 323 323 322 324 327 329 330 333 335 331 330 330 327 328 329 329 329 330 331 331 332 333 335 339 347 348 337 339 341 341 341 342 342 347 354 357 357 357
312 313 314 315 317 319 320 322 328 328 338 335 333 335 337 340 339 338 337 336 335 335 333 332 332 333 332 336 331 336 345 343 331 349 348 345 343 344 350 351 353 354 356 356
315 314 313 314 315 315 315 317 321 326 324 327 329 330 332 333 335 335 336 339 340 338 336 331 334 334 337 335 328 330 334 335 347 350 351 350 350 352 356 351 352 355 356 351
313 312 314 314 314 314 314 315 317 318 319 321 323 328 329 331 333 335 336 339 343 342 336 337 340 337 340 331 329 334 336 336 342 348 348 349 350 354 354 354 356 357 356 356
311 311 314 315 314 315 314 314 315 315 316 318 321 321 325 327 330 335 337 340 346 341 345 348 346 348 350 334 334 335 337 338 339 338 339 343 352 356 355 358 359 358 357 357
312 313 313 314 314 313 313 314 314 314 313 314 316 319 324 326 327 334 336 345 347 344 352 351 354 354 356 338 347 341 339 340 340 342 346 348 356 351 359 359 359 359 357 355
311 312 313 314 313 313 313 313 314 316 319 319 320 322 324 327 329 333 340 348 350 352 353 356 358 357 355 351 350 356 347 341 347 353 354 355 356 357 357 354 356 357 357 356
Wind_Speed
29 19 25 27 24 20 16 16 20 16 11 13 16 15 14 15 21 21 24 27 30 32 30 31 31 30 29 28 28 28 28 29 28 27 24 23 21 19 18 18 18 17 15 13
18 28 23 21 20 20 22 17 20 13 7 12 15 15 14 12 18 22 25 29 31 28 29 31 32 32 32 31 30 29 30 31 33 27 26 23 21 19 19 18 17 19 16 14
24 14 24 23 21 23 23 23 18 17 14 15 14 16 15 14 16 18 24 27 28 30 32 33 34 36 34 33 33 31 32 32 33 28 24 23 20 20 20 20 18 18 18 16
24 17 25 24 26 24 25 23 19 18 12 13 16 17 20 22 17 18 22 27 30 33 33 33 35 36 37 36 32 31 31 32 30 31 25 29 26 23 22 21 19 18 21 19
21 26 23 27 26 25 21 17 18 20 17 17 22 10 16 13 17 19 20 27 31 33 35 35 36 38 39 36 35 32 33 35 33 33 31 28 28 24 18 20 20 22 20 22
27 18 24 23 19 23 14 16 14 15 16 19 23 20 19 17 18 18 21 25 29 31 35 36 35 34 35 35 33 32 33 39 38 37 35 35 30 29 22 21 19 19 18 19
26 25 18 16 23 20 22 20 10 12 16 20 22 22 20 8 19 21 18 26 28 32 34 36 35 36 36 37 38 37 38 42 41 40 39 38 37 34 33 25 21 19 18 18
22 20 29 24 26 22 28 24 11 17 15 17 17 22 24 23 23 8 25 22 24 28 32 35 38 37 37 38 41 41 39 43 42 42 42 40 38 36 32 30 25 21 21 19
22 24 29 20 22 24 25 25 28 11 5 8 15 19 16 14 21 26 28 24 24 27 33 36 39 40 39 38 41 45 47 46 44 44 44 43 41 40 34 33 31 28 24 21
16 18 18 25 27 26 20 26 21 15 16 19 13 19 13 22 23 22 23 26 26 28 30 34 35 38 40 39 40 42 45 45 45 46 46 45 44 42 41 41 39 33 29 27
14 15 22 23 26 29 23 18 24 17 17 12 11 12 16 18 17 23 23 29 28 27 28 31 34 35 38 39 37 40 42 45 44 43 46 47 46 44 42 44 44 41 37 34
15 10 12 26 20 26 28 24 29 13 23 19 14 8 7 7 16 18 22 27 27 27 26 27 29 29 31 36 38 40 41 41 44 47 45 45 46 45 44 44 44 43 40 37
4 14 15 14 21 23 28 28 25 25 16 21 17 5 8 7 1 4 11 17 22 21 21 23 23 26 29 32 37 38 38 41 40 40 45 45 45 46 47 46 45 43 42 40
6 12 23 18 17 19 28 29 28 28 20 18 19 16 11 5 6 11 7 7 11 13 17 19 22 25 26 29 34 42 39 36 37 37 39 48 50 50 49 47 46 45 45 44
6 14 7 14 1 4 14 27 30 30 27 25 19 21 18 11 7 4 4 4 2 4 9 14 17 23 26 26 32 36 35 40 37 40 41 44 45 50 52 51 50 48 47 46
6 4 6 14 10 7 10 12 15 25 29 27 26 23 11 13 13 22 24 20 18 19 10 11 16 18 21 22 24 27 33 38 40 43 46 45 44 43 47 50 50 50 49 47
6 5 6 15 12 10 15 22 20 18 18 18 23 17 16 19 14 15 15 16 18 20 21 16 14 17 20 20 20 23 27 30 36 43 45 45 44 44 44 43 45 49 49 47
7 8 7 6 7 16 11 10 25 24 20 20 18 16 15 16 21 23 23 25 27 28 24 21 20 17 17 19 20 22 22 28 36 37 38 43 45 44 41 41 42 43 47 48
13 9 8 11 13 10 6 4 8 10 16 17 18 13 19 23 24 26 24 25 27 29 29 25 23 22 21 20 22 21 24 27 30 38 38 41 42 42 40 41 41 33 31 32
13 12 10 8 16 18 4 18 9 6 11 11 5 8 6 10 14 13 20 23 23 25 27 29 30 27 24 27 21 23 27 29 33 34 35 36 36 38 39 37 31 28 28 28
12 12 15 13 13 9 11 7 3 13 5 8 1 4 6 6 8 19 26 28 24 22 20 22 23 25 26 22 22 22 25 30 31 26 28 29 31 35 31 30 29 28 27 27
11 10 11 15 17 22 12 12 14 11 11 14 14 14 15 17 17 19 23 28 28 30 28 26 25 21 18 22 22 21 27 25 24 24 24 26 27 26 23 29 28 28 29 31
13 12 10 11 12 12 10 15 17 17 22 21 25 21 21 25 24 23 26 28 29 26 23 20 18 15 20 22 21 20 21 23 24 22 24 22 22 22 25 24 23 24 26 30
17 18 14 15 18 22 23 23 27 25 26 29 28 31 27 32 33 29 29 29 25 22 19 14 12 13 15 18 19 20 20 21 21 20 20 20 21 21 21 20 20 23 25 26
14 12 18 22 22 28 32 25 30 36 31 34 36 35 31 31 37 35 37 30 25 18 15 12 11 11 10 15 12 15 16 18 19 19 19 18 18 20 18 18 20 20 22 23
21 24 18 18 20 19 23 24 23 26 26 25 28 32 34 32 37 34 35 25 13 15 11 11 12 14 13 16 18 14 16 19 18 17 16 16 16 17 16 20 25 27 27 27
Wind_Direction
190 199 207 204 213 226 227 220 227 210 213 220 230 231 233 193 200 208 195 196 197 199 198 200 201 202 202 204 205 206 204 208 206 206 207 210 213 217 219 217 222 230 239 245
184 215 212 216 209 222 230 228 227 227 167 231 233 234 231 215 206 210 201 201 205 198 196 199 200 201 203 205 206 208 209 211 213 210 208 210 213 219 222 221 224 234 235 233
199 205 213 207 211 212 222 225 228 230 203 230 255 251 233 213 214 213 212 207 206 202 198 197 200 202 202 205 206 207 210 212 215 206 211 213 213 215 222 220 227 230 226 228
220 200 199 207 215 208 219 217 236 240 222 240 198 253 224 222 208 208 210 205 204 202 202 202 200 203 204 206 207 208 211 213 214 213 211 212 211 215 217 221 225 225 231 229
202 213 196 211 212 211 230 220 219 235 242 249 248 247 254 198 217 210 211 208 205 204 200 202 205 206 207 206 208 209 212 217 215 218 210 217 214 218 218 221 224 231 230 232
223 209 215 219 213 221 212 221 222 230 234 239 236 238 244 233 215 222 211 210 205 205 204 205 208 208 210 210 210 211 213 220 220 221 218 221 220 212 216 221 224 224 227 233
212 217 218 208 213 206 202 196 196 210 219 234 227 235 235 251 234 216 219 208 206 204 204 203 203 206 209 209 210 210 214 221 223 223 224 223 225 227 221 219 224 222 226 229
205 216 204 194 207 197 196 203 207 210 219 228 216 233 235 234 238 233 232 218 204 206 205 205 205 206 208 209 210 210 215 222 222 224 227 228 229 230 230 232 224 229 226 230
197 225 185 201 197 199 194 213 216 250 192 268 226 218 241 253 220 224 231 224 210 203 205 206 207 207 208 208 210 211 216 228 226 227 228 229 231 230 228 227 235 227 226 225
257 220 186 191 195 210 209 204 214 228 243 241 226 232 226 212 216 219 215 213 207 204 205 208 209 210 211 211 210 213 221 227 228 226 229 230 230 232 234 238 237 234 226 226
250 239 185 182 201 195 201 201 213 225 230 218 235 235 211 230 211 216 212 211 205 201 202 206 209 212 214 213 213 213 217 226 230 229 230 229 229 230 233 236 239 238 237 236
218 236 203 203 198 211 203 205 201 214 210 239 278 261 115 226 215 215 215 209 212 209 207 207 210 212 212 213 213 216 215 216 223 229 229 230 230 230 231 235 238 239 237 235
168 223 212 187 202 204 217 202 209 217 229 211 220 214 124 117 156 212 227 224 217 220 223 221 217 213 213 214 215 215 216 217 217 218 224 229 230 230 230 232 235 238 237 233
262 245 223 214 211 199 213 209 214 212 222 225 211 234 163 206 143 148 169 200 219 219 229 230 231 223 219 218 218 217 218 219 217 216 216 223 229 230 230 230 231 234 235 233
318 221 237 249 288 287 238 215 210 218 222 227 228 214 238 250 228 234 296 315 341 222 235 230 226 223 222 220 221 223 220 218 213 220 220 225 230 231 234 234 236 237 237 235
336 198 254 245 217 226 239 231 240 235 225 233 240 246 222 219 290 270 267 288 284 272 266 265 239 226 224 219 224 222 224 221 215 216 226 228 233 235 234 236 238 239 239 237
289 283 237 229 212 240 243 224 220 227 232 238 236 243 248 257 247 257 275 285 293 286 276 260 249 239 231 237 232 234 242 220 218 220 228 233 233 235 237 236 236 240 240 238
270 241 256 248 186 236 246 214 209 224 229 228 245 253 256 249 248 254 256 264 269 273 272 261 253 251 248 246 248 244 224 228 224 230 231 233 235 237 237 238 240 239 238 238
215 254 245 236 226 281 213 163 217 216 229 233 247 253 246 246 250 254 259 260 260 259 261 264 262 264 262 255 254 236 226 218 220 228 231 235 236 237 239 243 245 233 227 229
203 223 245 216 239 232 240 227 202 290 258 255 221 243 282 262 246 249 253 254 268 265 265 266 268 268 264 260 252 235 224 218 234 232 231 233 235 238 241 241 232 227 225 224
192 208 223 228 249 248 262 87 317 194 75 57 132 306 315 302 315 305 298 291 286 287 287 280 276 268 255 251 246 229 221 225 239 226 224 229 233 237 234 234 235 226 219 215
202 200 210 232 242 239 262 289 235 10 334 324 315 312 311 305 300 297 300 298 292 282 282 277 278 262 250 239 240 234 239 242 225 220 219 223 226 220 218 226 227 221 221 229
243 254 258 215 228 264 275 258 296 308 305 304 305 305 307 300 300 300 303 304 295 286 282 272 260 248 239 238 236 234 237 224 215 210 214 215 218 212 203 219 214 214 218 216
260 269 261 265 258 267 271 272 277 285 289 294 292 296 297 298 301 300 302 302 293 281 266 262 246 236 234 236 229 224 223 213 209 211 211 206 203 199 196 200 207 210 213 219
269 274 252 259 258 264 265 266 271 275 280 284 287 287 289 292 292 301 302 299 288 262 251 242 223 219 209 212 200 200 196 186 188 190 193 193 192 193 195 192 204 217 219 227
250 251 247 250 263 267 264 258 263 268 276 280 282 284 283 282 284 292 291 287 263 236 211 193 181 185 170 168 169 160 176 185 184 182 181 180 185 182 187 203 209 213 218 225